Starlink 11654

operational
NORAD ID: 63265 Int'l Des: 2025-053 Owner: SPXS Country: US Constellation: starlink
LEOCIRCULAR

Starlink 11654について

説明を読み込み中...

リアルタイム位置

3D地球を読み込み中...

次回通過

高度履歴

Altitude vs Time

uPlot chart will show altitude changes over time

軌道要素

1 63265U 25053A 25306.29290387 .00224394 00000-0 17004-2 0 9991
2 63265 43.0004 160.1023 0000871 285.8180 74.2591 15.70910423 37635
Epoch: Nov 2, 2025 • Age: 25 hours

現在のステータス

高度 356.5 km
速度 7.70 km/s
衛星直下点 33.77°N, 41.51°E
打ち上げ日 Mar 15, 2025
運用期間 0.6 years
タイプ internet

技術仕様

分類 Payload
質量 960.00 kg
乾燥質量 910.00 kg
総質量 960.00 kg
長さ 0.30 m
直径 4.10 m
スパン 29.00 m
形状 Box + pan
製造者 SPXS
バスタイプ Starlink V2MD
フェーズステータス In Orbit
所有者/国 SPXS/US

大規模コンステレーション

Loading constellations...